(117523) = 1994 GN4 = 2005 CD52

Discovered at Kitt Peak on 2005-02-02 by Spacewatch.

Orbit

Orbit type: Main Belt

Note: WebGL enabled browser required.

epoch2023-09-13.0
epoch JD2460200.5
perihelion date2022-03-11.13572
perihelion JD2459649.63572
argument of perihelion (°)307.71771
ascending node (°)213.57635
inclination (°)2.24050
eccentricity0.1191197
perihelion distance (AU)2.8037613
Tisserand w.r.t. Jupiter3.2
ΔV w.r.t. Earth (km/sec)10.4
semimajor axis (AU)3.1829083
mean anomaly (°)95.61197
mean daily motion (°/day)0.17356720
aphelion distance (AU)3.562
period (years)5.68
P-vector [x]-0.94684261
P-vector [y]0.30608566
P-vector [z]0.09899818
Q-vector [x]-0.32096979
Q-vector [y]-0.87817397
Q-vector [z]-0.35466726
absolute magnitude15.46
phase slope0.15
uncertainty0
referenceMPEC 2023-X132
observations used492
oppositions18
arc length (days)10672
first opposition used1994
last opposition used2023
residual rms (arc-secs)0.72
perturbers coarse indicatorM-v
perturbers precise indicator003Ek
first observation date used1994-04-06.0
last observation date used2023-06-25.0
computer nameMPCLINUX
JD of orbit computation2456966.730589
perihelion JD uncertainty (days)1.2609E-04
argument of perihelion uncertainty (°)1.2046E-04
ascending node uncertainty (°)1.1854E-04
inclination uncertainty (°)7.4720E-06
eccentricity uncertainty 6.3111E-08
perihelion distance uncertainty (AU)2.0452E-07
Minimum Orbit Intersection Distances (in AU)
for orbit epoch: 2460200.5, reference: E2023-XD2
Mercury2.4266
Venus2.08855
Earth1.81148
Mars1.14606
Jupiter1.42764
Saturn5.8629
Uranus15.644
Neptune26.3524

Observations

501 total observations over interval: 1994 04 06.27837 – 2023 06 25.368510
These data are available for download (format description).

Date (UT) J2000 RA J2000 Dec Magn Location Ref
1994 04 06.27837 13 11 28.42 -08 33 11.0 18.8 V 691 – Steward Observatory, Kitt Peak-Spacewatch MPC 23419
1994 04 06.30158 13 11 27.40 -08 33 03.8   691 – Steward Observatory, Kitt Peak-Spacewatch MPC 23419
1994 04 06.32492 13 11 26.32 -08 32 56.6   691 – Steward Observatory, Kitt Peak-Spacewatch MPC 23419
1994 04 11.29483 13 07 48.13 -08 06 54.0 19.2 V 691 – Steward Observatory, Kitt Peak-Spacewatch MPC 23419
1994 04 11.31819 13 07 47.06 -08 06 46.5   691 – Steward Observatory, Kitt Peak-Spacewatch MPC 23419
1994 04 11.34159 13 07 45.98 -08 06 39.3   691 – Steward Observatory, Kitt Peak-Spacewatch MPC 23420
2000 04 24.39161 15 18 55.80 -17 34 17.6 20.5 V 691 – Steward Observatory, Kitt Peak-Spacewatch MPS 128039
2000 04 24.41482 15 18 54.75 -17 34 12.8 20.1 V 691 – Steward Observatory, Kitt Peak-Spacewatch MPS 128039
2000 04 24.43685 15 18 53.82 -17 34 08.1 20.1 V 691 – Steward Observatory, Kitt Peak-Spacewatch MPS 128039
2000 05 07.34151 15 09 10.62 -16 46 27.4 19.8 V 691 – Steward Observatory, Kitt Peak-Spacewatch MPS 128039
2000 05 07.37367 15 09 09.04 -16 46 20.0 19.9 V 691 – Steward Observatory, Kitt Peak-Spacewatch MPS 128039
2000 05 07.39842 15 09 07.83 -16 46 14.2 20.3 V 691 – Steward Observatory, Kitt Peak-Spacewatch MPS 128039
2000 05 28.17698 14 53 57.73 -15 30 09.6 19.3   704 – Lincoln Laboratory ETS, New Mexico MPS 128039
2000 05 28.19040 14 53 57.26 -15 30 07.3 19.5   704 – Lincoln Laboratory ETS, New Mexico MPS 128039
2000 05 28.20529 14 53 56.68 -15 30 04.6 19.3   704 – Lincoln Laboratory ETS, New Mexico MPS 128039
2000 05 28.21869 14 53 56.11 -15 30 01.5 19.5   704 – Lincoln Laboratory ETS, New Mexico MPS 128039
2001 06 28.40397 20 41 03.30 -15 10 36.7 21.6 V 691 – Steward Observatory, Kitt Peak-Spacewatch MPS 128039
2001 06 28.42675 20 41 02.55 -15 10 38.1 21.5 V 691 – Steward Observatory, Kitt Peak-Spacewatch MPS 128039
2001 06 28.44926 20 41 01.84 -15 10 40.3 22.3 V 691 – Steward Observatory, Kitt Peak-Spacewatch MPS 128039
2002 10 30.200730 23 53 11.734 +00 36 56.33 21.06 V 645 – Apache Point-Sloan Digital Sky Survey MPS 128039
2002 10 30.204202 23 53 11.645 +00 36 55.58 21.69   645 – Apache Point-Sloan Digital Sky Survey MPS 128039
2003 11 30.25767 04 38 08.47 +20 11 01.8 20.2 V 291 – LPL/Spacewatch II MPS 128039
2003 11 30.28225 04 38 07.18 +20 10 58.5 20.0 V 291 – LPL/Spacewatch II MPS 128039
2003 11 30.30689 04 38 05.91 +20 10 55.2 20.6 V 291 – LPL/Spacewatch II MPS 128039
2003 12 19.20628 04 22 25.56 +19 29 59.4 19.8   704 – Lincoln Laboratory ETS, New Mexico MPS 128039
2003 12 19.21951 04 22 24.93 +19 29 57.6 19.8   704 – Lincoln Laboratory ETS, New Mexico MPS 128039
2003 12 19.25909 04 22 23.02 +19 29 52.2 20.4   704 – Lincoln Laboratory ETS, New Mexico MPS 128039
2005 02 02.41327 11 06 56.25 +02 42 06.1 20.9 V 691 – Steward Observatory, Kitt Peak-Spacewatch MPS 126465
2005 02 02.44323 11 06 55.42 +02 42 10.6 20.0 V 691 – Steward Observatory, Kitt Peak-Spacewatch MPS 126465
2005 02 02.46863 11 06 54.73 +02 42 14.7 20.0 V 691 – Steward Observatory, Kitt Peak-Spacewatch MPS 126465
2005 02 09.36514 11 03 29.17 +03 02 25.7 20.5   704 – Lincoln Laboratory ETS, New Mexico MPS 126465
2005 02 09.37765 11 03 28.70 +03 02 28.1 20.1   704 – Lincoln Laboratory ETS, New Mexico MPS 126465
2005 02 09.39074 11 03 28.20 +03 02 31.2 20.1   704 – Lincoln Laboratory ETS, New Mexico MPS 126465
2005 02 09.40370 11 03 27.76 +03 02 34.2 20.3   704 – Lincoln Laboratory ETS, New Mexico MPS 126465
2005 03 03.29971 10 48 25.12 +04 40 11.9 18.5 R 703 – Catalina Sky Survey MPS 127225
2005 03 03.30771 10 48 24.75 +04 40 15.0 18.4 R 703 – Catalina Sky Survey MPS 127225
2005 03 03.31581 10 48 24.34 +04 40 17.7 18.5 R 703 – Catalina Sky Survey MPS 127225
2005 03 03.32390 10 48 24.01 +04 40 19.0 18.0 R 703 – Catalina Sky Survey MPS 127225
2005 03 08.17620 10 44 48.06 +05 05 13.1 18.9 R 699 – Lowell Observatory-LONEOS MPS 128039
2005 03 08.19567 10 44 47.16 +05 05 19.9   699 – Lowell Observatory-LONEOS MPS 128039
2005 03 08.21511 10 44 46.37 +05 05 25.9   699 – Lowell Observatory-LONEOS MPS 128039
2005 03 08.23457 10 44 45.42 +05 05 30.8   699 – Lowell Observatory-LONEOS MPS 128039
2005 03 08.29051 10 44 42.87 +05 05 47.6 19.5   704 – Lincoln Laboratory ETS, New Mexico MPS 128039
2005 03 08.31415 10 44 41.81 +05 05 55.4 19.2   704 – Lincoln Laboratory ETS, New Mexico MPS 128039
2005 03 08.32577 10 44 41.25 +05 05 59.8 19.4   704 – Lincoln Laboratory ETS, New Mexico MPS 128039
2005 03 08.33749 10 44 40.74 +05 06 02.6 19.2   704 – Lincoln Laboratory ETS, New Mexico MPS 128039
2005 03 09.18126 10 44 04.02 +05 10 21.0 18.9 R 699 – Lowell Observatory-LONEOS MPS 128039
2005 03 09.20069 10 44 03.18 +05 10 26.6   699 – Lowell Observatory-LONEOS MPS 128039
2005 03 09.22013 10 44 02.29 +05 10 33.7   699 – Lowell Observatory-LONEOS MPS 128039
2005 03 09.23958 10 44 01.35 +05 10 40.4   699 – Lowell Observatory-LONEOS MPS 128039
2005 03 17.22363 10 38 30.17 +05 50 23.7 19.2   704 – Lincoln Laboratory ETS, New Mexico MPS 129149
2005 03 17.23422 10 38 29.74 +05 50 26.2 19.2   704 – Lincoln Laboratory ETS, New Mexico MPS 129149
2005 03 17.24534 10 38 29.31 +05 50 30.1 19.1   704 – Lincoln Laboratory ETS, New Mexico MPS 129149
2005 03 17.25654 10 38 28.85 +05 50 33.8 19.2   704 – Lincoln Laboratory ETS, New Mexico MPS 129149
2005 03 17.26711 10 38 28.33 +05 50 36.1 18.8   704 – Lincoln Laboratory ETS, New Mexico MPS 129149
2005 03 17.35655 10 38 24.70 +05 51 02.3 18.7 R 703 – Catalina Sky Survey MPS 129149
2005 03 17.36524 10 38 24.35 +05 51 05.7 18.6 R 703 – Catalina Sky Survey MPS 129149
2005 03 17.37582 10 38 23.87 +05 51 08.0 18.7 R 703 – Catalina Sky Survey MPS 129149
2005 03 17.38454 10 38 23.57 +05 51 10.5 18.8 R 703 – Catalina Sky Survey MPS 129149
2005 03 30.25212 10 31 25.33 +06 45 47.0 19.5 R 703 – Catalina Sky Survey MPS 130240
2005 03 30.26017 10 31 25.18 +06 45 50.3 19.0 R 703 – Catalina Sky Survey MPS 130240
2005 03 30.26828 10 31 24.90 +06 45 52.2 19.8 R 703 – Catalina Sky Survey MPS 130240
2005 03 30.27628 10 31 24.48 +06 45 55.1 18.8 R 703 – Catalina Sky Survey MPS 130240
2005 04 02.12919 10 30 17.49 +06 55 44.9 19.8 V 691 – Steward Observatory, Kitt Peak-Spacewatch MPS 130240
2005 04 02.14512 10 30 17.12 +06 55 48.3 19.8 V 691 – Steward Observatory, Kitt Peak-Spacewatch MPS 130240
2005 04 02.16095 10 30 16.75 +06 55 51.2 19.9 V 691 – Steward Observatory, Kitt Peak-Spacewatch MPS 130240
2005 04 09.25192 10 28 14.96 +07 16 02.8 19.0 R G96 – Mt. Lemmon Survey MPS 131727
2005 04 09.25722 10 28 14.92 +07 16 03.4 18.8 R G96 – Mt. Lemmon Survey MPS 131727
2005 04 09.26256 10 28 14.79 +07 16 04.1 20.0 R G96 – Mt. Lemmon Survey MPS 131727
2005 04 09.26789 10 28 14.75 +07 16 05.2 19.8 R G96 – Mt. Lemmon Survey MPS 131727
2005 05 14.13870 10 34 43.20 +07 18 05.0 20.0 R G96 – Mt. Lemmon Survey MPS 134884
2005 05 14.14397 10 34 43.32 +07 18 04.3 20.2 R G96 – Mt. Lemmon Survey MPS 134884
2005 05 14.14922 10 34 43.50 +07 18 03.7 19.6 R G96 – Mt. Lemmon Survey MPS 134884
2005 05 14.15449 10 34 43.67 +07 18 02.3 19.9 R G96 – Mt. Lemmon Survey MPS 134884
2008 09 07.35370 01 46 53.29 +11 54 02.4 20.4 V G96 – Mt. Lemmon Survey MPS 256353
2008 09 07.35978 01 46 53.18 +11 54 01.6 20.7 V G96 – Mt. Lemmon Survey MPS 256353
2008 09 07.36590 01 46 53.04 +11 54 00.8 20.2 V G96 – Mt. Lemmon Survey MPS 256353
2008 09 07.37204 01 46 52.93 +11 54 00.0 20.6 V G96 – Mt. Lemmon Survey MPS 256353
2008 10 06.25407 01 31 40.87 +10 17 15.0 20.1 V 691 – Steward Observatory, Kitt Peak-Spacewatch MPS 260059
2008 10 06.27169 01 31 40.15 +10 17 10.5 20.4 V 691 – Steward Observatory, Kitt Peak-Spacewatch MPS 260059
2008 10 06.28928 01 31 39.40 +10 17 04.9 20.1 V 691 – Steward Observatory, Kitt Peak-Spacewatch MPS 260059
2008 10 10.25606 01 28 50.81 +09 58 52.1 20.2 V 691 – Steward Observatory, Kitt Peak-Spacewatch MPS 260059
2008 10 10.27369 01 28 50.04 +09 58 47.2 20.2 V 691 – Steward Observatory, Kitt Peak-Spacewatch MPS 260060
2008 10 10.29132 01 28 49.24 +09 58 41.8 20.2 V 691 – Steward Observatory, Kitt Peak-Spacewatch MPS 260060
2008 10 23.27235 01 19 25.60 +08 56 28.0 20.1 V G96 – Mt. Lemmon Survey MPS 261114
